Hourly Data Report for August 17, 2000

SHERBROOKE A
QUEBEC

45°26'00.000" N
71°41'00.000" W
241.40 m
7028124
71610
YSC

Download Data

Hourly Data (August 2000)
Hourly Data Report for August 17, 2000
TIME
LST
Temp Definition
°C
Dew Point Definition
°C
Rel Hum Definition
%
Precip. Amount Definition
mm

Wind Dir Definition
10's deg

Wind Spd Definition
km/h
Visibility Definition
km
Stn Press Definition
kPa
Hmdx Definition


Wind Chill Definition


Weather Definition


00:00 13.5 12.3 92   26 13 15.0 98.19      
01:00 13.3 12.8 97   27 17 15.0 98.16      
02:00 13.0 12.6 97   27 17 15.0 98.16     Rain
03:00 12.6 12.1 97   28 15 15.0 98.19     Drizzle
04:00 12.3 11.9 97   27 13 15.0 98.22      
05:00 11.6 11.0 96   27 15 15.0 98.26     Drizzle
06:00 11.2 10.3 94   28 13 15.0 98.36      
07:00 11.7 9.7 88   28 20 16.1 98.42     Rain
08:00 11.1 10.3 95   30 15 19.3 98.42     Drizzle
09:00 10.7 10.2 97   28 13 12.9 98.45     Drizzle
10:00 12.5 10.8 89   28 13 24.1 98.42     Mostly Cloudy
11:00 11.8 9.6 86   26 17 24.1 98.45     Drizzle
12:00 11.6 9.0 84   27 17 24.1 98.49     Cloudy
13:00 12.6 8.9 78   26 17 24.1 98.52     Mostly Cloudy
14:00 12.5 8.9 79   26 17 24.1 98.52     Cloudy
15:00 13.5 9.2 75   26 20 24.1 98.55     Cloudy
16:00 12.8 9.0 78   25 17 24.1 98.55     Cloudy
17:00 12.1 9.1 82   25 20 15.0 98.59      
18:00 12.0 9.3 84   25 13 15.0 98.59      
19:00 11.8 9.2 84   22 7 15.0 98.65      
20:00 11.4 9.7 89   18 6 15.0 98.69      
21:00 11.4 9.7 89   20 6 15.0 98.65      
22:00 11.6 9.7 88   22 7 15.0 98.65      
23:00 10.9 9.6 92   21 6 15.0 98.65      

Notes on Data Quality.

Legend

  • E = Estimated
  • M = Missing
  • NA = Not Available*
  • [empty] = Indicates an unobserved value
Date modified: